Flag for U.S.A. Weather past 2 weeks in Newport News, Virginia, U.S.A.

Now
75 °F

Strong thunderstorms. Fog.


Feels Like: 73 °F
Forecast: 75 / 87 °F
Wind: 8 mph from North

Location: Newport News / Williamsburg International Airport

Current Time: Jul 31, 2015 at 3:42:23 AM

Latest Report: Jul 31, 2015 at 3:02 AM


Visibility: 2 mi

Pressure: 29.89 "Hg

Humidity: 94%

Dew point: 73 °F

Location of Newport NewsLocation

Historic Weather in Newport News — Graph

°F

Newport News temperature yesterday

Maximum temperature yesterday: 93 °F (at 2:54 PM)
Minimum temperature yesterday: 74 °F (at 4:54 AM)
Average temperature yesterday: 84 °F

Past Weeks' High & Low Weather Summary

 TemperatureHumidityPressure
High93 °F (Jul 20, 3:54 PM)97% (Jul 17, 2:54 AM)30.09 "Hg (Jul 17, 2:54 AM)
Low62 °F (Jul 26, 5:54 AM)36% (Jul 25, 2:54 PM)29.62 "Hg (Jul 21, 3:54 PM)
Average79 °F74%29.93 "Hg
* Reported Jul 16 1:54 AM — Jul 31 1:54 AM, Newport News, Weather by CustomWeather, © 2015

Note: Actual official high and low records may vary slightly from our data, if they occured in-between our weather recording intervals... More about our weather records

Advertising

Newport News weather history for previous 24 hours

 ConditionsComfort  
Time TempWeatherWind HumidityBarometerVisibility
1:54 AM
Fri, Jul 31
81 °FPartly cloudy.8 mph74%29.88 "Hg10 mi
12:54 AM81 °FPassing clouds.7 mph85%29.89 "Hg10 mi
11:54 PM
Thu, Jul 30
82 °FClear.10 mph82%29.89 "Hg10 mi
10:54 PM79 °FPassing clouds.No wind88%29.89 "Hg10 mi
9:54 PM80 °FPassing clouds.3 mph87%29.90 "Hg10 mi
8:54 PM84 °FPartly sunny.6 mph77%29.87 "Hg10 mi
7:54 PM88 °FSunny.5 mph61%29.86 "Hg10 mi
6:54 PM90 °FSunny.6 mph56%29.85 "Hg10 mi
5:54 PM92 °FSunny.9 mph52%29.85 "Hg10 mi
4:54 PM93 °FSunny.12 mph49%29.85 "Hg10 mi
3:54 PM93 °FPassing clouds.10 mph49%29.86 "Hg10 mi
2:54 PM93 °FPassing clouds.15 mph50%29.89 "Hg10 mi
1:54 PM91 °FPassing clouds.10 mph52%29.92 "Hg10 mi
12:54 PM90 °FSunny.3 mph52%29.94 "Hg10 mi
11:54 AM89 °FSunny.3 mph55%29.95 "Hg10 mi
10:54 AM86 °FSunny.5 mph61%29.95 "Hg10 mi
9:54 AM84 °FSunny.7 mph70%29.96 "Hg10 mi
8:54 AM82 °FSunny.9 mph74%29.96 "Hg10 mi
7:54 AM79 °FSunny.5 mph82%29.96 "Hg10 mi
6:54 AM74 °FClear.No wind94%29.96 "Hg10 mi
5:54 AM74 °FClear.No wind91%29.94 "Hg10 mi
4:54 AM74 °FClear.5 mph91%29.95 "Hg10 mi
3:54 AM76 °FClear.7 mph88%29.96 "Hg10 mi
Weather by CustomWeather, © 2015

See weather overviewHow to use our weather pages